Dewpoint
50 35 34 38 26 24 20 15 18 25 41 55 56 56 55 56 54 50 57 57 61 61 62 64 69 69 69 70 71 73 73 73 73 73 73 73 73 73 73 73 72 72 72 71 71 71 70 71 71
48 37 35 31 25 22 21 23 35 40 46 51 51 53 54 53 53 52 55 56 58 58 59 61 66 67 67 68 69 70 71 72 73 73 73 73 73 73 73 73 72 72 72 71 71 70 71 71 71
45 39 31 28 26 21 15 32 35 37 42 46 49 49 49 50 49 49 52 55 56 53 55 57 62 65 66 66 67 68 68 69 70 72 72 72 72 73 73 73 72 72 71 71 70 71 72 71 69
28 28 29 23 18 19 19 25 33 29 38 48 49 46 46 46 48 49 54 55 55 53 51 57 61 61 63 63 64 65 66 67 67 68 69 71 72 72 72 72 72 72 71 71 71 72 71 70 69
20 26 25 28 24 22 17 18 28 26 40 47 48 47 45 44 45 51 53 53 52 53 53 54 60 59 58 58 59 61 62 64 65 63 65 66 68 70 71 71 71 71 71 71 72 72 71 70 69
15 25 23 21 21 19 19 20 22 36 39 45 47 45 42 44 47 50 49 49 51 51 52 52 55 58 58 57 58 60 61 61 63 61 62 64 66 69 69 70 70 71 71 71 71 71 71 70 69
14 17 17 18 17 19 20 22 26 31 31 33 46 44 42 42 47 47 46 47 48 48 50 49 49 51 57 57 57 59 60 61 61 60 61 61 61 64 65 68 67 68 68 70 70 70 70 70 69
11 13 12 14 16 19 20 20 26 26 28 34 39 44 42 43 46 44 43 42 44 46 46 46 47 48 48 46 56 59 60 60 59 58 59 59 59 60 60 62 64 67 67 68 69 69 69 69 69
12 9 11 13 15 17 16 18 28 30 31 34 36 40 42 44 42 40 40 41 41 42 45 46 46 46 46 44 51 54 56 57 57 54 55 55 54 54 55 58 60 60 62 66 66 67 68 68 68
10 12 13 15 15 14 17 18 24 26 29 33 35 39 40 42 40 37 36 37 38 39 41 45 46 46 46 45 47 47 48 50 53 51 51 52 51 53 52 54 56 56 59 61 64 64 66 67 68
14 13 13 13 19 12 11 19 24 25 26 31 34 36 36 34 32 32 33 36 38 39 41 44 46 47 46 45 46 47 47 49 50 50 49 49 50 50 50 51 51 52 54 55 55 57 58 62 63
11 12 14 10 12 12 11 14 28 28 29 32 33 35 34 32 32 32 33 35 38 40 40 43 45 46 46 46 47 47 46 47 48 49 48 47 48 47 47 48 49 49 49 49 50 52 52 54 56
22 20 19 12 12 13 14 18 28 28 30 31 31 32 32 32 32 34 34 35 37 40 40 42 44 45 45 45 47 46 46 47 47 48 47 48 46 46 46 46 47 46 46 46 46 47 47 49 51
25 22 22 21 20 13 14 18 25 29 30 29 29 29 31 32 33 34 35 35 37 39 40 42 43 44 44 45 45 46 45 46 46 47 46 48 46 44 44 45 45 44 45 45 45 46 45 45 46
25 20 21 22 23 19 15 14 19 28 28 27 28 29 30 31 34 34 35 35 37 38 40 40 42 43 43 44 44 45 45 46 46 45 45 46 46 43 43 44 43 42 44 44 44 43 44 44 44
25 25 22 23 24 23 15 14 24 28 26 26 26 28 30 31 33 33 33 34 36 37 40 41 41 41 42 42 43 44 45 45 44 44 45 45 45 43 43 42 42 42 41 41 41 42 42 42 42
24 22 22 21 21 17 14 16 26 26 25 25 26 28 29 31 33 33 33 33 36 36 37 39 40 40 40 41 43 44 44 43 44 44 44 44 44 43 41 40 40 40 40 40 39 38 39 39 40
21 19 19 14 15 14 13 15 26 26 25 24 26 27 29 30 32 33 33 34 35 36 37 38 39 39 39 40 41 41 42 43 43 42 42 43 43 42 40 39 39 39 39 38 38 37 37 38 38
24 20 19 20 22 17 15 15 25 26 26 25 25 27 28 30 33 34 34 34 35 35 35 36 38 37 38 37 38 39 39 40 41 41 41 42 42 42 38 38 37 37 37 36 36 36 36 36 37
27 25 24 25 25 23 20 16 14 26 25 25 25 27 28 31 32 33 34 34 35 35 35 35 36 37 37 37 38 39 40 40 40 39 39 41 41 40 37 37 36 35 35 35 34 34 34 35 36
26 26 25 24 22 22 22 21 20 19 25 26 26 27 29 30 31 32 33 34 34 34 34 34 35 36 37 37 37 38 38 37 37 37 38 38 40 39 37 36 35 35 35 34 34 34 33 34 35
22 26 21 22 23 21 22 18 19 20 19 25 26 27 29 30 31 31 32 33 34 34 35 34 34 34 35 36 36 35 35 34 36 36 37 36 38 37 35 35 34 34 34 34 34 34 34 35 34
21 25 23 23 22 22 20 17 16 17 17 24 25 27 29 31 30 30 31 30 32 34 34 33 34 34 35 35 36 36 35 35 36 35 34 35 36 36 34 34 32 32 33 33 33 34 33 35 35
24 24 23 23 21 20 19 18 17 17 20 25 26 29 31 30 29 28 28 30 32 33 32 32 33 33 34 35 36 35 35 33 33 33 33 34 35 34 33 31 31 32 33 33 32 33 33 33 34
23 22 21 19 19 18 19 17 17 29 31 31 29 31 31 28 27 26 27 29 30 31 31 31 32 32 33 35 35 34 34 34 33 33 33 32 32 32 31 30 30 31 32 32 32 32 32 32 32
22 20 21 17 15 15 13 12 11 32 32 33 32 31 29 27 27 27 28 28 30 31 32 31 31 31 31 33 34 34 33 34 34 32 32 31 31 30 29 29 29 30 30 30 31 31 32 30 32
16 15 17 15 17 15 13 13 25 31 31 32 31 31 31 28 29 30 30 30 31 31 32 30 31 31 31 32 34 33 33 33 33 31 30 31 30 28 28 27 28 29 29 29 29 31 29 29 30
14 17 14 18 14 12 14 12 15 29 31 33 32 32 32 29 30 32 32 33 32 32 32 31 30 30 31 31 31 32 32 32 32 30 28 29 29 28 27 26 27 28 27 28 29 30 30 29 29
14 16 17 16 19 14 12 18 32 32 32 33 33 33 33 32 32 31 29 31 30 31 31 31 31 30 31 31 31 31 31 31 31 29 28 28 28 27 26 27 25 27 25 26 28 29 28 28 27
13 14 15 18 15 20 20 20 29 35 35 35 34 34 34 33 31 30 30 30 27 26 28 29 30 30 31 31 31 30 29 29 29 29 27 28 27 27 27 27 24 26 24 25 26 28 26 26 25
Lifted_Index
9 9 8 6 4 2 1 1 1 0 -1 -2 -2 -3 -3 -2 -2 -2 -3 -3 -4 -4 -4 -3 -3 -3 -3 -3 -4 -5 -5 -5 -6 -6 -6 -6 -6 -6 -6 -6 -6 -5 -5 -5 -5 -5 -5 -4 -4
9 9 8 6 4 2 1 1 1 0 -0 -1 -1 -2 -2 -2 -2 -2 -3 -3 -4 -4 -4 -4 -3 -3 -3 -3 -3 -3 -4 -4 -5 -6 -6 -6 -6 -6 -6 -6 -6 -5 -5 -5 -5 -5 -5 -4 -4
9 8 7 5 3 2 1 1 1 1 1 0 0 -0 -0 -1 -2 -2 -3 -3 -3 -3 -4 -4 -3 -3 -3 -3 -3 -3 -3 -3 -4 -4 -5 -6 -6 -6 -6 -6 -6 -6 -5 -5 -5 -6 -5 -5 -4
8 8 6 4 3 2 2 1 1 1 1 1 1 1 0 -1 -1 -1 -2 -2 -2 -3 -3 -4 -3 -3 -3 -2 -2 -2 -2 -2 -2 -3 -4 -4 -5 -6 -6 -6 -6 -5 -5 -5 -6 -6 -6 -5 -4
8 7 5 4 3 3 3 2 2 2 1 1 1 1 0 -1 -1 -1 -1 -1 -2 -3 -3 -3 -3 -3 -2 -2 -2 -2 -2 -2 -2 -2 -3 -3 -4 -4 -5 -5 -5 -5 -5 -5 -6 -6 -6 -5 -4
7 6 4 3 3 3 3 3 3 2 2 2 1 1 0 -0 -0 0 0 0 -0 -1 -1 -1 -1 -1 -1 -1 -1 -1 -2 -2 -2 -2 -2 -3 -3 -3 -3 -4 -4 -4 -5 -5 -5 -5 -6 -5 -5
7 6 4 3 3 4 3 3 4 3 2 2 1 1 0 0 1 2 3 3 3 3 4 4 3 3 3 3 2 1 1 0 0 -0 -1 -2 -2 -2 -2 -2 -3 -3 -3 -4 -5 -5 -5 -5 -5
7 6 5 4 4 4 4 4 4 4 3 2 1 1 -0 0 2 4 4 4 5 7 7 8 8 7 7 7 6 5 5 4 4 4 4 2 1 0 -0 -1 -1 -2 -2 -3 -4 -4 -4 -5 -5
8 6 5 5 5 5 6 5 5 5 4 3 2 1 0 0 2 3 3 3 4 7 9 9 10 9 9 9 8 8 8 7 8 8 8 7 6 5 4 3 2 1 -0 -1 -2 -3 -3 -4 -4
7 6 6 6 6 6 6 6 5 5 4 3 3 2 1 1 3 3 2 2 4 7 9 10 10 10 10 10 10 10 10 9 9 10 10 10 10 9 9 8 7 6 4 2 0 -1 -2 -3 -3
6 6 6 6 6 6 6 6 6 5 5 4 4 3 3 3 3 4 4 4 5 8 9 10 10 10 10 10 10 10 10 10 10 10 11 11 11 11 11 11 10 9 8 6 5 3 1 0 -1
6 6 6 6 6 5 5 6 6 6 5 5 5 5 5 4 4 5 6 7 8 9 10 10 10 10 10 10 10 11 11 11 11 11 11 12 12 12 12 12 11 11 10 9 9 7 6 5 4
6 6 6 6 6 6 5 5 6 6 6 5 6 6 7 6 6 7 8 9 10 10 10 10 11 11 11 11 11 11 11 12 12 12 12 12 12 12 12 12 12 12 11 11 11 10 10 9 9
6 5 5 6 6 6 5 5 6 6 6 6 6 7 8 8 8 9 9 10 10 10 10 10 11 11 11 11 11 12 12 12 12 13 13 13 13 13 13 12 12 12 12 12 12 12 11 11 11
5 5 5 4 4 5 5 5 5 6 6 6 6 7 8 8 9 9 10 10 10 10 10 10 11 12 12 12 12 12 12 13 13 13 13 13 13 13 13 13 12 13 13 13 12 12 12 12 12
5 5 4 4 4 4 5 5 5 6 6 6 6 6 7 8 8 9 10 10 11 10 10 11 11 12 12 12 12 12 12 13 13 13 14 14 14 14 13 13 13 13 13 13 12 12 12 12 11
4 4 5 5 4 4 5 5 6 6 6 6 6 6 6 7 8 8 10 10 10 10 10 11 11 12 12 12 12 12 12 13 13 14 14 14 14 14 14 13 13 13 13 13 13 12 12 12 12
4 4 5 5 4 4 4 5 6 6 6 6 6 6 6 6 7 8 9 10 10 11 11 11 11 12 12 12 12 12 13 13 13 14 14 14 14 14 14 14 13 14 13 13 13 13 13 12 12
4 4 4 4 4 4 4 4 5 6 6 5 5 5 6 6 7 8 9 10 10 11 11 12 12 12 12 12 12 12 13 13 13 14 14 15 15 14 14 14 14 14 14 14 13 13 13 12 12
4 4 3 3 3 3 3 3 4 4 5 5 5 5 5 6 7 8 8 9 10 10 11 12 12 12 12 12 13 13 13 13 13 14 14 15 15 15 15 15 14 14 14 14 14 13 13 13 13
4 3 3 3 3 3 3 3 3 3 3 3 4 4 5 6 7 7 7 8 9 10 11 11 12 12 12 13 13 13 13 13 13 14 14 15 15 16 15 15 15 15 14 14 14 13 13 13 13
4 4 4 4 4 4 3 3 3 3 2 2 3 3 4 6 6 6 6 7 8 9 10 11 11 11 12 12 12 12 12 13 13 14 14 15 16 16 16 16 16 15 15 14 14 14 14 13 13
5 4 4 4 4 4 3 3 3 3 3 2 2 3 4 5 6 6 6 7 8 9 10 11 11 11 11 12 12 12 12 12 13 14 14 15 16 16 17 17 16 16 16 15 15 14 14 14 13
5 4 4 4 3 3 3 3 4 4 3 3 2 2 3 4 5 5 6 6 7 8 9 10 11 11 11 12 12 12 12 12 12 13 13 14 15 15 16 16 16 16 16 16 15 15 15 15 14
4 4 3 2 2 2 3 4 3 3 3 2 1 1 2 3 3 4 5 6 7 8 9 10 10 10 11 12 12 12 12 12 12 13 13 13 14 14 15 16 16 16 16 16 16 16 16 16 15
4 4 2 1 1 3 4 4 3 3 3 2 1 1 1 2 2 3 4 5 6 8 9 10 9 10 10 11 12 12 13 13 13 13 13 13 14 14 15 15 16 16 16 15 15 15 16 16 16
4 4 3 2 2 2 3 4 3 2 2 1 1 1 1 1 1 2 3 4 6 8 9 9 9 10 10 11 12 12 13 13 13 13 14 14 14 14 15 15 16 16 16 15 15 15 16 16 16
4 3 3 2 1 1 2 3 2 2 1 0 0 0 0 1 1 2 3 4 6 8 9 9 9 10 11 11 12 12 13 13 14 14 14 14 14 15 15 16 16 16 16 16 15 15 15 15 15
3 3 3 2 1 1 1 2 1 1 0 0 0 0 0 0 1 2 3 5 7 8 9 9 10 10 11 11 12 12 13 14 14 14 14 15 15 16 17 17 17 17 17 16 15 15 15 14 14
3 3 2 2 1 1 1 2 1 -0 -0 -0 0 0 0 0 1 1 3 5 7 8 9 9 10 10 11 12 12 13 13 14 14 14 15 15 16 17 18 18 18 18 17 16 15 15 14 14 13